Location: Ulm
(48.3980°N, 9.9777°E)
Time: 04:47:32
(UTC+01:00)

Tiangong 1 - Visible Passes

Search period start: 23 November 2017 00:00
Search period end: 03 December 2017 00:00
Orbit: 284 x 308 km, 42.8° (Epoch: 22 November)

Date Brightness Start Highest point End Pass type
(mag) Time Alt. Az. Time Alt. Az. Time Alt. Az.
27 Nov 3.1 18:00:13 10° S 18:01:29 13° SSE 18:01:57 12° SSE visible
28 Nov 2.7 18:05:24 10° SSW 18:07:14 17° SSE 18:07:37 17° SSE visible
29 Nov 2.5 18:10:47 10° SW 18:12:51 21° S 18:13:07 21° SSE visible
30 Nov 2.4 18:16:11 10° SW 18:18:20 23° S 18:18:28 23° S visible
01 Dec 2.5 18:21:33 10° WSW 18:23:39 22° S 18:23:43 22° S visible
02 Dec 2.8 18:26:52 10° WSW 18:28:49 19° S 18:28:51 19° S visible
